| time (UTC) | temp F | wind direction | speed knots | gust knots | rain 1hr in | rain 24hr in | rain mn in | humidity % | barometer mb |
| 20260507024559 | 43 | 283 | 0.0 | 0.9 | 0.00 | 0.94 | 0.76 | 96 | 1011.9 |
| 20260507023056 | 43 | 314 | 0.0 | 0.9 | 0.00 | 0.94 | 0.76 | 96 | 1011.8 |
| 20260507021557 | 43 | 296 | 0.0 | 0.9 | 0.00 | 0.94 | 0.76 | 96 | 1012.0 |
| 20260507020055 | 43 | 330 | 0.0 | 0.0 | 0.00 | 1.03 | 0.76 | 96 | 1011.9 |
| 20260507014554 | 43 | 332 | 0.0 | 0.9 | 0.00 | 1.03 | 0.76 | 96 | 1012.1 |
| 20260507013100 | 43 | 332 | 0.0 | 0.0 | 0.00 | 1.03 | 0.76 | 96 | 1012.1 |
| 20260507011555 | 43 | 331 | 0.0 | 0.9 | 0.00 | 1.03 | 0.76 | 96 | 1011.7 |
| 20260507010049 | 43 | 281 | 0.0 | 0.9 | 0.00 | 1.09 | 0.76 | 96 | 1011.7 |
| 20260507003047 | 43 | 281 | 0.0 | 0.9 | 0.00 | 1.09 | 0.76 | 95 | 1011.3 |
| 20260507001547 | 43 | 281 | 0.0 | 0.9 | 0.00 | 1.09 | 0.76 | 95 | 1011.2 |
| 20260507000051 | 43 | 243 | 0.0 | 0.9 | 0.00 | 1.09 | 0.76 | 94 | 1011.1 |
| 20260506234548 | 43 | 232 | 0.0 | 2.6 | 0.00 | 1.09 | 0.76 | 94 | 1010.9 |
| 20260506233042 | 43 | 307 | 0.0 | 0.9 | 0.00 | 1.09 | 0.76 | 94 | 1010.9 |
| 20260506231544 | 43 | 279 | 0.0 | 2.6 | 0.00 | 1.09 | 0.76 | 94 | 1010.8 |
| 20260506230039 | 43 | 238 | 0.0 | 0.9 | 0.00 | 1.09 | 0.76 | 94 | 1010.1 |
| 20260506224549 | 43 | 238 | 0.0 | 1.7 | 0.00 | 1.09 | 0.76 | 93 | 1010.2 |
| 20260506223038 | 44 | 321 | 0.0 | 1.7 | 0.00 | 1.09 | 0.76 | 94 | 1010.5 |
| 20260506221537 | 44 | 311 | 0.0 | 1.7 | 0.00 | 1.09 | 0.76 | 93 | 1010.4 |
| 20260506220038 | 44 | 13 | 0.0 | 2.6 | 0.00 | 1.09 | 0.76 | 94 | 1010.7 |
| 20260506214535 | 44 | 344 | 0.9 | 5.2 | 0.00 | 1.09 | 0.76 | 94 | 1010.5 |
| 20260506213034 | 44 | 308 | 0.9 | 3.5 | 0.00 | 1.09 | 0.76 | 94 | 1010.3 |
| 20260506211533 | 44 | 311 | 0.9 | 4.3 | 0.00 | 1.09 | 0.76 | 95 | 1010.2 |
| 20260506210030 | 43 | 320 | 0.9 | 4.3 | 0.00 | 1.15 | 0.76 | 95 | 1010.1 |
| 20260506204529 | 43 | 298 | 0.0 | 4.3 | 0.00 | 1.15 | 0.76 | 96 | 1010.1 |
| 20260506203032 | 43 | 314 | 0.9 | 3.5 | 0.00 | 1.15 | 0.76 | 96 | 1009.8 |
| 20260506201527 | 43 | 336 | 2.6 | 7.8 | 0.00 | 1.15 | 0.76 | 96 | 1009.6 |
| 20260506200025 | 43 | 324 | 0.9 | 6.1 | 0.00 | 1.15 | 0.76 | 96 | 1009.4 |
| 20260506194525 | 43 | 330 | 1.7 | 7.8 | 0.00 | 1.15 | 0.76 | 97 | 1009.6 |
| 20260506193023 | 43 | 332 | 2.6 | 8.7 | 0.00 | 1.15 | 0.76 | 97 | 1009.5 |
| 20260506191522 | 43 | 314 | 2.6 | 5.2 | 0.00 | 1.15 | 0.76 | 97 | 1009.3 |
| 20260506190019 | 43 | 32 | 1.7 | 7.0 | 0.01 | 1.19 | 0.76 | 97 | 1009.1 |
| 20260506184525 | 43 | 319 | 1.7 | 7.0 | 0.01 | 1.19 | 0.76 | 97 | 1009.1 |
| 20260506183017 | 43 | 283 | 1.7 | 7.0 | 0.01 | 1.19 | 0.76 | 97 | 1009.1 |
| 20260506181516 | 44 | 30 | 0.9 | 7.0 | 0.01 | 1.19 | 0.76 | 96 | 1008.7 |
| 20260506180023 | 44 | 326 | 1.7 | 6.1 | 0.00 | 1.43 | 0.75 | 96 | 1008.5 |
| 20260506174514 | 44 | 346 | 2.6 | 7.0 | 0.00 | 1.43 | 0.75 | 96 | 1008.3 |
| 20260506173015 | 44 | 10 | 1.7 | 4.3 | 0.00 | 1.43 | 0.75 | 96 | 1008.0 |
| 20260506171513 | 44 | 360 | 1.7 | 5.2 | 0.01 | 1.43 | 0.75 | 96 | 1008.1 |
| 20260506170015 | 44 | 33 | 0.0 | 6.1 | 0.01 | 1.43 | 0.75 | 97 | 1008.0 |
| 20260506164517 | 44 | 19 | 1.7 | 6.1 | 0.03 | 1.43 | 0.75 | 96 | 1007.9 |
| 20260506163010 | 44 | 345 | 0.9 | 5.2 | 0.04 | 1.43 | 0.75 | 97 | 1008.0 |
| 20260506161512 | 44 | 308 | 0.9 | 5.2 | 0.03 | 1.42 | 0.74 | 97 | 1007.9 |
| 20260506160009 | 43 | 358 | 1.7 | 4.3 | 0.04 | 1.42 | 0.74 | 97 | 1008.2 |
| 20260506154508 | 43 | 3 | 1.7 | 4.3 | 0.02 | 1.40 | 0.72 | 96 | 1008.2 |
| 20260506153007 | 43 | 330 | 0.0 | 2.6 | 0.02 | 1.39 | 0.71 | 96 | 1008.2 |
| 20260506151507 | 43 | 353 | 1.7 | 3.5 | 0.04 | 1.39 | 0.71 | 96 | 1008.0 |
| 20260506150006 | 43 | 34 | 0.9 | 1.7 | 0.05 | 1.38 | 0.70 | 96 | 1007.9 |
| 20260506144505 | 43 | 104 | 0.0 | 3.5 | 0.06 | 1.38 | 0.70 | 96 | 1007.6 |
| 20260506143007 | 43 | 124 | 0.9 | 2.6 | 0.06 | 1.37 | 0.69 | 96 | 1007.5 |
| 20260506141505 | 43 | 358 | 0.0 | 4.3 | 0.07 | 1.35 | 0.67 | 97 | 1007.7 |
| 20260506140004 | 42 | 70 | 0.0 | 5.2 | 0.09 | 1.33 | 0.65 | 97 | 1007.7 |
| 20260506134502 | 42 | 44 | 0.0 | 2.6 | 0.14 | 1.32 | 0.64 | 96 | 1007.7 |
| 20260506133109 | 42 | 53 | 0.9 | 2.6 | 0.18 | 1.31 | 0.63 | 96 | 1007.8 |
| 20260506131600 | 42 | 13 | 1.7 | 4.3 | 0.18 | 1.28 | 0.60 | 96 | 1007.9 |
| 20260506130100 | 42 | 326 | 0.0 | 3.5 | 0.18 | 1.25 | 0.56 | 96 | 1007.8 |
| 20260506124601 | 42 | 69 | 0.9 | 5.2 | 0.14 | 1.19 | 0.51 | 96 | 1007.7 |
| 20260506123057 | 42 | 343 | 0.9 | 4.3 | 0.09 | 1.12 | 0.45 | 96 | 1007.7 |
| 20260506121556 | 42 | 27 | 0.9 | 5.2 | 0.08 | 1.10 | 0.42 | 96 | 1007.5 |
| 20260506120055 | 42 | 51 | 1.7 | 7.8 | 0.08 | 1.07 | 0.39 | 96 | 1007.5 |
| 20260506114600 | 42 | 18 | 0.9 | 5.2 | 0.10 | 1.05 | 0.37 | 96 | 1007.5 |
| 20260506113058 | 42 | 32 | 3.5 | 7.0 | 0.12 | 1.04 | 0.36 | 96 | 1007.8 |
| 20260506111553 | 42 | 321 | 0.9 | 4.3 | 0.12 | 1.02 | 0.34 | 96 | 1007.9 |
| 20260506110050 | 42 | 358 | 1.7 | 5.2 | 0.10 | 0.99 | 0.31 | 96 | 1008.2 |
| 20260506104556 | 42 | 34 | 0.9 | 4.3 | 0.06 | 0.95 | 0.27 | 96 | 1008.0 |
| 20260506103056 | 42 | 154 | 0.0 | 5.2 | 0.06 | 0.92 | 0.24 | 96 | 1007.5 |
| 20260506101551 | 42 | 51 | 0.0 | 2.6 | 0.06 | 0.90 | 0.22 | 96 | 1007.4 |
| 20260506100048 | 42 | 141 | 0.9 | 5.2 | 0.07 | 0.89 | 0.21 | 96 | 1007.3 |
| 20260506094545 | 42 | 120 | 0.9 | 4.3 | 0.08 | 0.89 | 0.21 | 96 | 1007.3 |
| 20260506093043 | 42 | 58 | 0.0 | 2.6 | 0.07 | 0.86 | 0.18 | 96 | 1007.7 |
| 20260506091542 | 42 | 29 | 1.7 | 3.5 | 0.08 | 0.84 | 0.16 | 96 | 1008.0 |
| 20260506090040 | 43 | 322 | 0.0 | 6.1 | 0.08 | 0.82 | 0.14 | 96 | 1008.6 |
| 20260506084542 | 43 | 52 | 2.6 | 6.1 | 0.10 | 0.81 | 0.13 | 96 | 1008.5 |
| 20260506083034 | 44 | 307 | 1.7 | 7.0 | 0.09 | 0.79 | 0.11 | 95 | 1008.1 |
| 20260506081530 | 46 | 319 | 1.7 | 7.0 | 0.06 | 0.76 | 0.08 | 96 | 1008.0 |
| 20260506073024 | 46 | 7 | 0.0 | 1.7 | 0.00 | 0.75 | 0.02 | 96 | 1007.8 |
| 20260506071523 | 46 | 39 | 0.9 | 3.5 | 0.00 | 0.75 | 0.02 | 96 | 1007.3 |
| 20260506061516 | 47 | 120 | 0.0 | 1.7 | 0.02 | 0.75 | 0.02 | 96 | 1008.4 |
| 20260506044508 | 46 | 223 | 0.0 | 0.9 | 0.00 | 0.74 | 0.00 | 96 | 1009.7 |
| 20260506043003 | 46 | 40 | 0.0 | 1.7 | 0.01 | 0.74 | 0.00 | 96 | 1009.5 |
| 20260506041501 | 46 | 145 | 0.0 | 2.6 | 0.06 | 0.74 | 0.00 | 96 | 1009.5 |
| 20260506040100 | 46 | 120 | 0.0 | 0.9 | 0.11 | 0.74 | 0.74 | 96 | 1009.4 |
| 20260506034600 | 46 | 109 | 0.0 | 0.9 | 0.14 | 0.74 | 0.74 | 96 | 1009.5 |
| 20260506033058 | 46 | 113 | 0.0 | 0.9 | 0.14 | 0.73 | 0.73 | 96 | 1009.5 |
| 20260506031558 | 46 | 129 | 0.0 | 0.9 | 0.11 | 0.68 | 0.68 | 96 | 1009.6 |